TimeCST,TemperatureF,Dew PointF,Humidity,Sea Level PressureIn,VisibilityMPH,Wind Direction,Wind SpeedMPH,Gust SpeedMPH,PrecipitationIn,Events,Conditions,WindDirDegrees,DateUTC
12:15 AM,1.4,-0.4,92,30.24,8.0,SE,8.1,-,N/A,,Clear,140,2013-03-02 06:15:00
12:35 AM,1.4,-0.4,92,30.24,8.0,SSE,5.8,-,N/A,,Partly Cloudy,150,2013-03-02 06:35:00
12:55 AM,3.2,-0.4,85,30.22,8.0,SE,8.1,-,N/A,,Mostly Cloudy,140,2013-03-02 06:55:00
1:15 AM,5.0,1.4,85,30.21,8.0,SSE,6.9,-,N/A,,Mostly Cloudy,150,2013-03-02 07:15:00
1:35 AM,5.0,1.4,85,30.22,9.0,South,4.6,-,N/A,,Overcast,180,2013-03-02 07:35:00
1:55 AM,8.6,6.8,92,30.21,9.0,South,9.2,-,N/A,Snow,Light Snow,190,2013-03-02 07:55:00
2:15 AM,8.6,6.8,92,30.20,10.0,South,8.1,-,N/A,,Overcast,170,2013-03-02 08:15:00
2:35 AM,10.4,8.6,92,30.18,10.0,SSE,12.7,-,N/A,,Overcast,160,2013-03-02 08:35:00
2:55 AM,12.2,10.4,92,30.18,10.0,SSE,10.4,-,N/A,,Overcast,150,2013-03-02 08:55:00
3:15 AM,14.0,10.4,86,30.17,10.0,SSE,13.8,-,N/A,,Overcast,150,2013-03-02 09:15:00
3:35 AM,14.0,12.2,93,30.17,10.0,South,12.7,-,N/A,,Overcast,170,2013-03-02 09:35:00
3:55 AM,14.0,12.2,93,30.15,10.0,SSE,13.8,-,N/A,,Overcast,160,2013-03-02 09:55:00
4:15 AM,14.0,12.2,93,30.14,10.0,SSE,11.5,-,N/A,,Mostly Cloudy,150,2013-03-02 10:15:00
4:35 AM,15.8,14.0,93,30.13,10.0,SSE,11.5,-,N/A,,Overcast,150,2013-03-02 10:35:00
4:55 AM,15.8,14.0,93,30.12,10.0,SE,12.7,-,N/A,,Overcast,130,2013-03-02 10:55:00
5:15 AM,15.8,14.0,93,30.11,10.0,SE,13.8,-,N/A,,Overcast,140,2013-03-02 11:15:00
5:35 AM,15.8,14.0,93,30.11,10.0,SSE,12.7,-,N/A,,Overcast,150,2013-03-02 11:35:00
6:15 AM,15.8,14.0,93,30.11,10.0,SE,12.7,-,N/A,,Overcast,140,2013-03-02 12:15:00
6:35 AM,17.6,15.8,93,30.11,10.0,SSE,11.5,-,N/A,,Overcast,150,2013-03-02 12:35:00
6:55 AM,17.6,15.8,93,30.09,10.0,SSE,10.4,-,N/A,,Overcast,160,2013-03-02 12:55:00
7:15 AM,17.6,15.8,93,30.09,10.0,SSE,10.4,-,N/A,,Overcast,150,2013-03-02 13:15:00
7:35 AM,17.6,15.8,93,30.09,10.0,SSE,10.4,-,N/A,,Overcast,150,2013-03-02 13:35:00
7:55 AM,19.4,15.8,86,30.09,10.0,SSE,10.4,-,N/A,,Overcast,160,2013-03-02 13:55:00
8:15 AM,19.4,15.8,86,30.09,10.0,SSE,10.4,-,N/A,,Overcast,160,2013-03-02 14:15:00
8:35 AM,19.4,15.8,86,30.09,10.0,SSE,10.4,-,N/A,,Mostly Cloudy,160,2013-03-02 14:35:00
8:55 AM,17.6,15.8,93,30.08,10.0,SSE,9.2,-,N/A,,Partly Cloudy,160,2013-03-02 14:55:00
9:15 AM,17.6,15.8,93,30.07,10.0,SSE,11.5,-,N/A,,Clear,160,2013-03-02 15:15:00
9:35 AM,19.4,15.8,86,30.07,10.0,SSE,10.4,-,N/A,,Clear,160,2013-03-02 15:35:00
9:55 AM,19.4,17.6,93,30.08,10.0,SSE,8.1,-,N/A,,Clear,160,2013-03-02 15:55:00
10:15 AM,19.4,17.6,93,30.06,10.0,SSE,15.0,-,N/A,,Clear,150,2013-03-02 16:15:00
10:35 AM,21.2,17.6,86,30.07,10.0,SSE,11.5,-,N/A,,Clear,160,2013-03-02 16:35:00
10:55 AM,23.0,17.6,80,30.08,10.0,South,8.1,-,N/A,,Clear,170,2013-03-02 16:55:00
11:15 AM,23.0,19.4,86,30.06,10.0,South,13.8,-,N/A,,Partly Cloudy,170,2013-03-02 17:15:00
11:35 AM,23.0,19.4,86,30.05,10.0,South,15.0,-,N/A,,Clear,170,2013-03-02 17:35:00
11:55 AM,24.8,19.4,80,30.06,10.0,South,10.4,-,N/A,,Scattered Clouds,180,2013-03-02 17:55:00
12:15 PM,23.0,19.4,86,30.06,10.0,South,11.5,-,N/A,,Overcast,190,2013-03-02 18:15:00
12:35 PM,24.8,21.2,86,30.04,10.0,South,12.7,-,N/A,,Mostly Cloudy,180,2013-03-02 18:35:00
12:55 PM,24.8,23.0,93,30.04,10.0,South,10.4,-,N/A,,Partly Cloudy,180,2013-03-02 18:55:00
1:15 PM,24.8,23.0,93,30.03,10.0,South,11.5,-,N/A,,Partly Cloudy,180,2013-03-02 19:15:00
1:35 PM,26.6,23.0,86,30.04,10.0,SSW,8.1,-,N/A,,Clear,210,2013-03-02 19:35:00
1:55 PM,26.6,23.0,86,30.03,10.0,SSW,6.9,-,N/A,,Partly Cloudy,210,2013-03-02 19:55:00
2:15 PM,26.6,24.8,93,30.04,10.0,SW,4.6,-,N/A,,Mostly Cloudy,230,2013-03-02 20:15:00
2:35 PM,26.6,24.8,93,30.03,10.0,WSW,3.5,-,N/A,,Overcast,250,2013-03-02 20:35:00
2:55 PM,26.6,24.8,93,30.03,10.0,Calm,Calm,-,N/A,,Overcast,0,2013-03-02 20:55:00
3:15 PM,28.4,24.8,86,30.03,10.0,SSW,4.6,-,N/A,,Scattered Clouds,210,2013-03-02 21:15:00
3:35 PM,28.4,24.8,86,30.03,10.0,SW,3.5,-,N/A,,Clear,220,2013-03-02 21:35:00
3:55 PM,28.4,24.8,86,30.02,10.0,Calm,Calm,-,N/A,,Clear,0,2013-03-02 21:55:00
4:15 PM,28.4,26.6,93,30.03,10.0,Calm,Calm,-,N/A,,Clear,0,2013-03-02 22:15:00
4:35 PM,28.4,24.8,86,30.03,10.0,Calm,Calm,-,N/A,,Scattered Clouds,0,2013-03-02 22:35:00
4:55 PM,28.4,24.8,86,30.03,10.0,NNW,4.6,-,N/A,,Scattered Clouds,340,2013-03-02 22:55:00
5:15 PM,28.4,24.8,86,30.04,10.0,North,3.5,-,N/A,,Clear,10,2013-03-02 23:15:00
5:35 PM,24.8,23.0,93,30.03,10.0,North,3.5,-,N/A,,Clear,350,2013-03-02 23:35:00
5:55 PM,24.8,23.0,93,30.03,10.0,North,4.6,-,N/A,,Clear,360,2013-03-02 23:55:00
6:15 PM,23.0,19.4,86,30.03,8.0,NNE,6.9,-,N/A,,Clear,20,2013-03-03 00:15:00
6:35 PM,23.0,23.0,100,30.04,8.0,NNE,4.6,-,N/A,,Clear,30,2013-03-03 00:35:00
6:55 PM,23.0,23.0,100,30.04,9.0,NNE,5.8,-,N/A,,Clear,30,2013-03-03 00:55:00
7:15 PM,19.4,19.4,100,30.03,5.0,NNE,5.8,-,N/A,,Clear,30,2013-03-03 01:15:00
7:35 PM,17.6,17.6,100,30.03,4.0,NE,4.6,-,N/A,,Scattered Clouds,40,2013-03-03 01:35:00
7:55 PM,17.6,17.6,100,30.03,5.0,NE,4.6,-,N/A,,Overcast,50,2013-03-03 01:55:00
8:15 PM,21.2,21.2,100,30.02,8.0,NE,4.6,-,N/A,,Overcast,50,2013-03-03 02:15:00
8:35 PM,23.0,23.0,100,30.02,8.0,East,3.5,-,N/A,,Overcast,80,2013-03-03 02:35:00
8:55 PM,23.0,23.0,100,30.02,8.0,East,3.5,-,N/A,,Overcast,80,2013-03-03 02:55:00
9:15 PM,24.8,23.0,93,30.02,8.0,NE,3.5,-,N/A,,Overcast,40,2013-03-03 03:15:00
9:35 PM,21.2,21.2,100,30.02,7.0,NNE,3.5,-,N/A,,Scattered Clouds,20,2013-03-03 03:35:00
9:55 PM,15.8,15.8,100,30.01,5.0,ESE,8.1,-,N/A,,Partly Cloudy,120,2013-03-03 03:55:00
10:15 PM,14.0,14.0,100,30.01,4.0,SE,4.6,-,N/A,,Mostly Cloudy,130,2013-03-03 04:15:00
10:35 PM,15.8,15.8,100,30.00,1.0,East,4.6,-,N/A,,Overcast,90,2013-03-03 04:35:00
10:55 PM,17.6,17.6,100,30.00,4.0,NE,3.5,-,N/A,,Overcast,40,2013-03-03 04:55:00
11:15 PM,19.4,19.4,100,30.00,6.0,Calm,Calm,-,N/A,,Overcast,0,2013-03-03 05:15:00
11:35 PM,21.2,21.2,100,29.99,6.0,Calm,Calm,-,N/A,,Overcast,0,2013-03-03 05:35:00